Weather History for El Centro, CA

Change the Weather History Date:

Sunday, May 6, 2012

  Actual Average Record
Temperature  
Mean Temperature 78 °F -  
Max Temperature 95 °F 88 °F 102 °F (1997)
Min Temperature 62 °F 63 °F 60 °F (2006)
Cooling Degree Days 12    
Growing Degree Days 28 (Base 50)    
Moisture  
Dew Point 32 °F    
Average Humidity 21    
Maximum Humidity 38    
Minimum Humidity 8    
Precipitation  
Precipitation 0.00 in - - ()
Sea Level Pressure  
Sea Level Pressure 29.85 in    
Wind  
Wind Speed 5 mph (SW)    
Max Wind Speed 17 mph    
Max Gust Speed -    
Visibility 10 miles    
Events      
Averages and records for this station are not official NWS values.
T = Trace of Precipitation, MM = Missing Value Source: NWS Daily Summary

Daily Weather History Graph

Daily Weather History Graph

Search for Another Location

Airport:

Trip Planner

Search our weather history database for the weather conditions in past years. The results will help you decide how hot, cold, wet, or windy it might be!

Date:

Astronomy

May. 06, 2012 Rise Set
Actual Time 5:50 AM PDT 7:28 PM PDT
Civil Twilight 5:23 AM PDT 7:55 PM PDT
Nautical Twilight 4:51 AM PDT 8:27 PM PDT
Astronomical Twilight 4:18 AM PDT 9:01 PM PDT
Moon 8:34 PM PDT (5/6) 6:07 AM PDT (5/6)
Length of Visible Light 14h 31m
Length of Day
13h 38m
Full, 99% of the Moon is Illuminated
May 6
Full
May 12
Last Quarter
May 20
New
May 28
First Quarter
Jun 4
Full

Hourly Weather History & Observations

Time (PDT) Temp. Dew Point Humidity Pressure Visibility Wind Dir Wind Speed Gust Speed Precip Events Conditions
12:56 AM 68.0 °F 35.1 °F 30% 29.85 in 10.0 mi WSW 8.1 mph - N/A   Clear
1:56 AM 64.0 °F 30.0 °F 28% 29.84 in 10.0 mi Calm Calm - N/A   Clear
2:56 AM 64.9 °F 30.9 °F 28% 29.83 in 10.0 mi West 4.6 mph - N/A   Clear
3:56 AM 64.0 °F 33.1 °F 31% 29.84 in 10.0 mi West 5.8 mph - N/A   Clear
4:56 AM 62.1 °F 28.9 °F 29% 29.84 in 10.0 mi West 8.1 mph - N/A   Clear
5:56 AM 63.0 °F 26.1 °F 25% 29.84 in 10.0 mi West 5.8 mph - N/A   Clear
6:56 AM 66.0 °F 28.9 °F 25% 29.86 in 10.0 mi Calm Calm - N/A   Clear
7:56 AM 78.1 °F 24.1 °F 14% 29.88 in 10.0 mi Calm Calm - N/A   Clear
8:56 AM 80.1 °F 33.1 °F 18% 29.89 in 10.0 mi Calm Calm - N/A   Clear
9:56 AM 81.0 °F 43.0 °F 26% 29.90 in 10.0 mi ESE 4.6 mph - N/A   Clear
10:56 AM 87.1 °F 35.1 °F 16% 29.90 in 10.0 mi Variable 4.6 mph - N/A   Clear
11:56 AM 90.0 °F 30.0 °F 12% 29.89 in 10.0 mi East 8.1 mph - N/A   Clear
12:56 PM 90.0 °F 32.0 °F 13% 29.87 in 10.0 mi Variable 3.5 mph - N/A   Clear
1:56 PM 93.0 °F 32.0 °F 12% 29.86 in 9.0 mi East 6.9 mph - N/A   Partly Cloudy
2:56 PM 93.9 °F 28.0 °F 10% 29.84 in 10.0 mi Variable 5.8 mph - N/A   Partly Cloudy
3:56 PM 93.0 °F 27.0 °F 9% 29.82 in 10.0 mi South 4.6 mph - N/A   Clear
4:56 PM 91.9 °F 28.0 °F 10% 29.81 in 10.0 mi Calm Calm - N/A   Clear
5:56 PM 91.9 °F 26.1 °F 9% 29.81 in 10.0 mi SSE 4.6 mph - N/A   Clear
6:56 PM 91.0 °F 21.0 °F 8% 29.80 in 10.0 mi West 3.5 mph - N/A   Clear
7:55 PM - - N/A% - - North - - N/A   Unknown
7:56 PM 82.9 °F 39.0 °F 21% 29.82 in 10.0 mi WSW 15.0 mph - N/A   Clear
8:56 PM 80.1 °F 43.0 °F 27% 29.83 in 10.0 mi West 17.3 mph - N/A   Clear
9:56 PM 77.0 °F 42.1 °F 29% 29.84 in 10.0 mi WSW 9.2 mph - N/A   Clear
10:07 PM - - N/A% - - North - - N/A   Unknown
10:56 PM 73.9 °F 39.0 °F 28% 29.84 in 10.0 mi WSW 9.2 mph - N/A   Clear
11:56 PM 69.1 °F 42.1 °F 38% 29.85 in 10.0 mi WSW 6.9 mph - N/A   Clear